Miscellaneous Local Product
Issued by NWS North Platte, NE

Home | Current Version | Previous Version | Text Only | Print | Product List | Glossary On
Versions: 1 2 3 4 5 6 7 8 9 10 11 12 13 14 15 16 17 18 19 20 21 22 23 24 25 26 27 28 29 30 31 32 33 34 35 36 37 38 39 40 41 42 43 44 45 46 47 48 49 50
000
AXUS43 KLBF 281810
MISLBF


WESTERN AND NORTH CENTRAL NEBRASKA HOURLY WEATHER ROUNDUP
NATIONAL WEATHER SERVICE NORTH PLATTE NE
1200 PM CST WED JAN 28 2015

***STATIONS NOT REPORTING VARIABLES SUCH AS SKY/WEATHER OR
PRESSURE ARE PROVIDED BY THE NEBRASKA DEPARTMENT OF
ROADS...RAWS...AND APRS NETWORKS...AND ARE NOT UNDER
NATIONAL WEATHER SERVICE QUALITY CONTROL***

...OBSERVATIONS IN AND NEAR THE EASTERN PANHANDLE OF NEBRASKA...

CITY           SKY/WX    TMP DP  RH WIND       PRES   REMARKS
PINE RIDGE     MOSUNNY   57  32  38 W15G24    29.90R
CHADRON        CLOUDY    52  34  50 NW18G26   29.92R
ALLIANCE         N/A     56  50  81 NW28G39   29.91S
SIDNEY         SUNNY     57  32  38 NW33G48   29.96F
WHITECLAY        N/A     53  31  42 W22         N/A
CRESCENT LAKE    N/A     57  32  39 NW23G33     N/A
LISCO            N/A     59  29  31 W32         N/A
LEWELLEN         N/A     59  30  33 W28         N/A
$$

...OBSERVATIONS IN NORTH CENTRAL NEBRASKA...

CITY           SKY/WX    TMP DP  RH WIND       PRES   REMARKS
VALENTINE      SUNNY     59  32  36 NW23G29   29.78S
THEDFORD       SUNNY     62  33  34 NW18G30   29.80F
AINSWORTH      SUNNY     58  31  36 NW24G31   29.77R
O`NEILL        MOSUNNY   59  36  42 NW16      29.72F
ORD            PTSUNNY   57  33  40 NW17      29.74F
BROKEN BOW     MOSUNNY   64  35  34 NW17      29.77F
BROWNLEE         N/A     62  34  35 NW26        N/A
VALENTINE NWR    N/A     58  32  38 NW16G25     N/A
SPRINGVIEW       N/A     61  36  39 W15G22      N/A
HALSEY           N/A     61  31  31 W15G26      N/A
BREWSTER         N/A     64  34  32 NW23        N/A
ROSE             N/A     63  38  39 S18         N/A
NEWPORT          N/A     62  37  38 W21         N/A
SARGENT          N/A     61  35  37 NW9         N/A
COMSTOCK         N/A     65  34  31 NW20        N/A
CHAMBERS         N/A     60  36  40 W13         N/A
EWING            N/A     53  41  63 SW3         N/A
$$

...OBSERVATIONS IN SOUTHWEST NEBRASKA AND FAR NORTHEAST COLORADO...

CITY           SKY/WX    TMP DP  RH WIND       PRES   REMARKS
WRAY           FAIR      62  30  29 NW29G37   29.96F
HOLYOKE        FAIR      61  30  31 NW28G36   29.95S
IMPERIAL       SUNNY     63  29  27 NW32G43   29.91F
OGALLALA       SUNNY     60  33  36 NW31G43   29.89R
NORTH PLATTE   SUNNY     63  32  31 NW30G37   29.85F
MCCOOK         PTSUNNY   62  34  35 NW20G29   29.87F
LEXINGTON      MOSUNNY   60  34  37 NW18G29   29.81F
BRADY            N/A     59  35  40 S6G17       N/A
GOTHENBURG       N/A     60  33  36 W9          N/A
CALLAWAY         N/A     60  36  41 NW15        N/A
$$

...NORTH PLATTE AREA...

CITY           SKY/WX    TMP DP  RH WIND       PRES   REMARKS
AIRPORT        SUNNY     63  32  31 NW30G37   29.85F
$$

...SOME WEATHER OBSERVATIONS FROM AROUND THE REGION...

CITY           SKY/WX    TMP DP  RH WIND       PRES   REMARKS
DENVER         MOSUNNY   57  19  22 W24G33    30.07F
LARAMIE        MOSUNNY   40  28  62 W30G41    30.10F WCI  28
CHEYENNE       MOSUNNY   50  26  39 NW22G39   30.08R
SCOTTSBLUFF      N/A    N/A N/A N/A MISG      29.98R
RAPID CITY     CLOUDY    55  24  30 NW31G40   29.89R
PIERRE         MOSUNNY   49  34  56 NW20      29.74R
WINNER         FAIR      58  33  39 NW18      29.75R
SIOUX FALLS    PTSUNNY   40  34  79 S13       29.73F WCI  32
OMAHA          PTSUNNY   46  33  60 S10       29.78F
GRAND ISLAND   FAIR      54  35  48 W8        29.76F
KANSAS CITY    PTSUNNY   66  38  35 S18       29.84F
WICHITA        PTSUNNY   68  38  33 SW20      29.85S
HAYS           FAIR      66  34  30 N23G32    29.85F
LIBERAL        FAIR      64  37  36 N24G35    29.99S
GOODLAND       SUNNY     59  34  39 NW23      29.97S
$$



USA.gov is the U.S. government's official web portal to all federal, state and local government web resources and services.